Regional Weather Roundup
Issued by NWS

Home | Current Version | Previous Version | Text Only | Print | Product List | Glossary Off
Versions: 1 2 3 4 5 6 7 8 9 10 11 12 13 14 15 16 17 18 19 20 21 22 23 24 25 26 27 28 29 30 31 32 33 34 35 36 37 38 39 40 41 42 43 44 45 46 47 48 49 50

000
ASUS45 KPSR 091610
RWRAZ

ARIZONA HOURLY REGIONAL WEATHER ROUNDUP
NATIONAL WEATHER SERVICE PHOENIX AZ
900 AM MST TUE FEB 09 2016

NOTE: FAIR INDICATES FEW OR NO CLOUDS BELOW 12,000 FEET WITH NO
SIGNIFICANT WEATHER AND/OR OBSTRUCTIONS TO VISIBILITY.

AZZ001>003-036-091700-
NORTHWEST ARIZONA

CITY           SKY/WX    TMP DP  RH WIND       PRES   REMARKS
BULLHEAD CITY  SUNNY     63  27  25 N28G36    30.28S
KINGMAN          N/A     50  25  37 NE8       30.37R
$$

AZZ004>008-015-016-018-091700-
NORTH CENTRAL ARIZONA

CITY           SKY/WX    TMP DP  RH WIND       PRES   REMARKS
GRAND CANYON   SUNNY     46  20  35 NE12      30.47R
WILLIAMS       SUNNY     41  18  38 SE7       30.49R
PRESCOTT       SUNNY     42  24  49 S3        30.40R
FLAGSTAFF      SUNNY     44  15  31 E14       30.47R
PAYSON         SUNNY     54  18  24 CALM      30.39R
PAGE           SUNNY     37  28  70 CALM      30.50R
$$

AZZ009>014-017-091700-
NORTHEAST ARIZONA

CITY           SKY/WX    TMP DP  RH WIND       PRES   REMARKS
WINSLOW        SUNNY     32  23  69 SE5       30.49R WCI  27
SAINT JOHNS    SUNNY     35  23  61 CALM      30.47R
WINDOW ROCK    SUNNY     29   0  28 CALM      30.46R
SHOW LOW       SUNNY     32  21  64 CALM      30.49R
$$

AZZ023-091700-
GREATER PHOENIX AREA

CITY           SKY/WX    TMP DP  RH WIND       PRES   REMARKS
PHOENIX        SUNNY     68  21  16 VRB7      30.21R
BUCKEYE        SUNNY     59  25  27 N6        30.24R
GLENDALE       SUNNY     59  32  36 CALM      30.24R
LUKE AFB       SUNNY     59  30  33 CALM      30.22R
DEER VALLEY    SUNNY     60  24  25 CALM      30.22R
SCOTTSDALE     SUNNY     65  23  20 S3        30.24R
MESA-FALCON    SUNNY    N/A N/A N/A N15       30.22R
MESA-GATEWAY   SUNNY     55  34  44 S3        30.23R
CHANDLER       SUNNY     59  36  41 N5        30.22R
$$

AZZ027-028-091700-
SOUTHWEST MARICOPA COUNTY AND PINAL COUNTY

CITY           SKY/WX    TMP DP  RH WIND       PRES   REMARKS
CASA GRANDE    SUNNY     54  27  35 CALM      30.23R
GILA BEND      SUNNY     59  28  31 NE6       30.19R
$$

AZZ503-504-507>509-091700-
SOUTHEAST ARIZONA

CITY           SKY/WX    TMP DP  RH WIND       PRES   REMARKS
TUCSON         SUNNY     63  17  17 SE13      30.25R
DAVIS-MONTHAN  SUNNY     62  19  19 SE12      30.23R
RYAN FIELD     SUNNY     63  23  22 SE12      30.24R
NOGALES        SUNNY     57  18  21 NE7       30.27R
SIERRA VISTA   SUNNY     53  20  26 NE8       30.34R
DOUGLAS        SUNNY     52  20  28 NW9       30.34R
SAFFORD        SUNNY     52  24  33 SE15      30.34R
$$

AZZ020-021-025-026-031-091700-
SOUTHWEST ARIZONA

CITY           SKY/WX    TMP DP  RH WIND       PRES   REMARKS
YUMA           MOSUNNY   69  27  20 N13       30.18R
$$

CAZ031-033-041-043-047-048-061-091700-
SOUTHERN CALIFORNIA

CITY           SKY/WX    TMP DP  RH WIND       PRES   REMARKS
DOWNTOWN L.A.  SUNNY     64  30  27 CALM      30.15R
L.A. AIRPORT   SUNNY     71  26  18 VRB3      30.15R
SAN DIEGO      SUNNY     60  32  34 CALM      30.15R
BURBANK        SUNNY     59  30  33 CALM      30.17R
ONTARIO        SUNNY     62  31  31 CALM      30.18R
RIVERSIDE      SUNNY     61  27  27 NE6       30.19R
PALM SPRINGS   SUNNY     69  29  22 VRB3      30.23R
EL CENTRO NAS  SUNNY     56  25  30 W7        30.22R
IMPERIAL       SUNNY     55  32  41 CALM      30.20R
BLYTHE         SUNNY     57  29  34 E3        30.25R
NEEDLES        SUNNY     64  28  25 N12       30.29R
$$

NVZ020-UTZ003-091700-
SOUTHERN NEVADA-UTAH

CITY           SKY/WX    TMP DP  RH WIND       PRES   REMARKS
LAS VEGAS      SUNNY     52  27  38 SW3       30.36R
SALT LAKE CITY MOSUNNY   28  23  81 S7        30.60S FOG     WCI  21
$$

NMZ009-TXZ055-091700-
NEW MEXICO-WEST TEXAS

CITY           SKY/WX    TMP DP  RH WIND       PRES   REMARKS
ALBUQUERQUE    SUNNY     36  21  54 NW6       30.44R WCI  31
EL PASO        SUNNY     40  16  37 CALM      30.40F
$$


........................KEY........................
SKY/WX - SKY CONDITION/WEATHER
TMP    - TEMPERATURE IN FAHRENHEIT
DP     - DEW POINT IN FAHRENHEIT
RH     - RELATIVE HUMIDITY IN PERCENT
WIND   - DIRECTION AND SPEED IN MILES PER HOUR (MPH)
VRB    - VARIABLE WIND DIRECTION
PRES   - MEAN SEA LEVEL PRESSURE IN INCHES OF MERCURY
         F - FALLING PRESSURE   R - RISING PRESSURE
         S - STEADY PRESSURE
VSB    - VISIBILITY IN MILES
HX     - HEAT INDEX IN FAHRENHEIT
WCI    - WIND CHILL INDEX IN FAHRENHEIT
TC     - TEMPERATURE IN CELSIUS WHICH IS ALSO KNOWN AS
         TEMPERATURE IN CENTIGRADE
AFB    - AIR FORCE BASE
         LUKE AFB IS LUKE AIR FORCE BASE
         DAVIS-MONTHAN IS DAVIS-MONTHAN AIR FORCE BASE
NAS    - NAVAL AIR STATION
         EL CENTRO NAS IS EL CENTRO NAVAL AIR STATION
N/A    - NOT AVAILABLE




USA.gov is the U.S. government's official web portal to all federal, state and local government web resources and services.